Regional Weather Roundup
Issued by NWS Portland, ME

Current Version | Previous Version | Text Only | Print | Product List | Glossary Off
Versions: 1 2 3 4 5 6 7 8 9 10 11 12 13 14 15 16 17 18 19 20 21 22 23 24 25 26 27 28 29 30 31 32 33 34 35 36 37 38 39 40 41 42 43 44 45 46 47 48 49 50
000 ASUS41 KGYX 160005 RWRGYX WEATHER ROUNDUP FOR MAINE AND NEW HAMPSHIRE NATIONAL WEATHER SERVICE GRAY ME 700 PM EST FRI DEC 15 2017 MEZ002-005-006-010-012-015-018-020-021-024-026-027-029-160100- MAINE CITY SKY/WX TMP DP RH WIND PRES REMARKS PORTLAND CLOUDY 21 13 71 N6 29.88F 6HR MIN TEMP: 21; 6HR MAX TEMP: 23; SANFORD CLOUDY 19 12 74 CALM 29.86F BAR HARBOR CLOUDY 19 10 68 N5 29.91F WISCASSET CLOUDY 18 14 84 CALM 29.90F 6HR MIN TEMP: 18; 6HR MAX TEMP: 23; ROCKLAND CLOUDY 21 11 65 CALM 29.89F FRYEBURG CLOUDY 15 7 70 CALM 29.85F 6HR MIN TEMP: 15; 6HR MAX TEMP: 22; LEWISTONAUBURN CLOUDY 14 6 70 CALM 29.88F AUGUSTA CLOUDY 18 8 65 CALM 29.87F 6HR MIN TEMP: 18; 6HR MAX TEMP: 21; WATERVILLE CLOUDY 16 3 56 CALM 29.84F BANGOR CLOUDY 17 12 80 CALM 29.90F 6HR MIN TEMP: 15; 6HR MAX TEMP: 21; GREENVILLE N/A 14 2 58 SE3 29.76F 6HR MIN TEMP: 12; 6HR MAX TEMP: 18; MILLINOCKET CLOUDY 12 8 84 CALM 29.88F 6HR MIN TEMP: 11; 6HR MAX TEMP: 20; HOULTON CLOUDY 12 6 77 S5 29.85F 6HR MIN TEMP: 8; 6HR MAX TEMP: 17; PRESQUE ISLE PTCLDY 8 0 69 CALM 29.86F 6HR MIN TEMP: 7; 6HR MAX TEMP: 15; FRENCHVILLE CLOUDY 5 -3 69 SW8 29.79R 6HR MIN TEMP: 5; 6HR MAX TEMP: 10; CARIBOU CLOUDY 7 -1 70 SW3 29.83F 6HR MIN TEMP: 7; 6HR MAX TEMP: 14; $$ NHZ002-005-008-009-011-012-014-160100- NEW HAMPSHIRE CITY SKY/WX TMP DP RH WIND PRES REMARKS PORTSMOUTH CLOUDY 23 9 53 CALM 29.84F ROCHESTER CLOUDY 22 12 65 CALM 29.84F 6HR MIN TEMP: 21; 6HR MAX TEMP: 25; NASHUA CLOUDY 23 15 71 SE3 29.87F MANCHESTER CLOUDY 23 12 62 CALM 29.84F 6HR MIN TEMP: 23; 6HR MAX TEMP: 25; CONCORD CLOUDY 22 10 60 CALM 29.84F 6HR MIN TEMP: 21; 6HR MAX TEMP: 24; LACONIA CLOUDY 18 9 68 CALM 29.83F PLYMOUTH CLOUDY 17 11 76 CALM 29.83F BERLIN CLOUDY 12 8 84 CALM 29.78F 6HR MIN TEMP: 12; 6HR MAX TEMP: 23; WHITEFIELD CLOUDY 14 12 92 CALM 29.79F 6HR MIN TEMP: 14; 6HR MAX TEMP: 24; JAFFREY CLOUDY 19 15 84 CALM 29.80F 6HR MIN TEMP: 19; 6HR MAX TEMP: 22; KEENE CLOUDY 19 15 84 SW3 29.84F LEBANON CLOUDY 17 11 77 CALM 29.82F 6HR MIN TEMP: 16; 6HR MAX TEMP: 20; MT WASHINGTON NOT AVBL $$ VTZ005-007-008-160100- VERMONT CITY SKY/WX TMP DP RH WIND PRES REMARKS ST JOHNSBURY N/A 14 11 87 MISG 29.80F MONTPELIER CLOUDY 16 7 67 CALM 29.80F BURLINGTON CLOUDY 21 11 65 S8 29.81F $$ MAZ007-012-024-CTZ003-RIZ002-NYZ038-NYZ072-160100- SOUTHERN NEW ENGLAND AND NY CITY SKY/WX TMP DP RH WIND PRES REMARKS BOSTON CLOUDY 26 12 55 S6 29.89R WORCESTER CLOUDY 20 10 65 S6 29.82R NANTUCKET LGT SNOW 30 30 100 NE5 29.87F FOG PROVIDENCE LGT SNOW 25 18 74 CALM 29.90F HARTFORD LGT SNOW 21 18 88 S6 29.90S FOG ALBANY CLOUDY 21 10 62 S7 29.85F NEW YORK CITY LGT SNOW 26 22 84 VRB5 29.91F FOG $$ ANZ081-ANZ082-ANZ150-NHZ014-MEZ023>029-160100- COASTAL MARINE OBSERVATIONS STATION/POSITION TIME TEMP WIND PRES WAVE AIR SEA DIR/SP/G HT/PER (UTC) (F) (DEG/KT/KT) (MB) (FT/S) MOUNT DESERT ROC 2300 29 320/ 9/ 10 1013.5F MATINICUS ROCK 2300 29 290/ 4/ 5 1012.6F ISLE OF SHOALS 2300 27 260/ 3/ 3 1012.1F JEFFREYS LEDGE 2336 48 N/A 2/11 GEORGES BANK BUO 2250 40 50 1013.2 8/10 $$ .............KEY.............. WCI - WIND CHILL TC - TEMPERATURE IN CELSIUS VSB - VISIBILITY IN MILES HX - HEAT INDEX FAIR- INDICATES FEW OR NO CLOUDS BELOW 12,000 FT, WITH NO SIGNIFICANT WEATHER AND/OR OBSTRUCTIONS TO VISIBILITY.

USA.gov is the U.S. government's official web portal to all federal, state and local government web resources and services.